QPF
0.00 0.01 0.01 0.03 0.02 0.03 0.02 0.02 0.02 0.03 0.04 0.01 0.02 0.02 0.00 0.00 0.00 0.00 0.00 0.00 0.00 0.00 0.00 0.00 0.00 0.00 0.00 0.00 0.00 0.00 0.00 0.00 0.00 0.00 0.00 0.00 0.00 0.00 0.01 0.08 0.09 0.03 0.03 0.07
0.00 0.00 0.01 0.02 0.03 0.03 0.01 0.09 0.05 0.00 0.08 0.05 0.03 0.01 0.00 0.00 0.00 0.00 0.00 0.00 0.00 0.00 0.00 0.00 0.00 0.00 0.00 0.00 0.00 0.00 0.00 0.00 0.00 0.00 0.00 0.01 0.03 0.01 0.03 0.03 0.04 0.08 0.10 0.07
0.01 0.01 0.04 0.04 0.03 0.04 0.01 0.08 0.04 0.00 0.02 0.12 0.05 0.03 0.01 0.00 0.00 0.00 0.00 0.00 0.00 0.00 0.00 0.00 0.00 0.00 0.00 0.00 0.00 0.00 0.00 0.00 0.00 0.00 0.02 0.04 0.07 0.10 0.07 0.09 0.08 0.01 0.02 0.02
0.01 0.01 0.01 0.04 0.05 0.04 0.02 0.02 0.01 0.00 0.05 0.09 0.09 0.04 0.04 0.03 0.01 0.00 0.00 0.00 0.00 0.00 0.00 0.00 0.00 0.00 0.00 0.00 0.00 0.00 0.00 0.00 0.00 0.00 0.00 0.00 0.04 0.08 0.17 0.12 0.06 0.09 0.03 0.02
0.00 0.00 0.01 0.03 0.07 0.05 0.02 0.01 0.00 0.00 0.00 0.01 0.02 0.02 0.00 0.00 0.00 0.00 0.00 0.00 0.00 0.00 0.00 0.00 0.00 0.00 0.00 0.00 0.00 0.00 0.00 0.00 0.00 0.00 0.00 0.00 0.00 0.00 0.02 0.08 0.13 0.09 0.09 0.10
0.01 0.00 0.02 0.09 0.13 0.07 0.01 0.00 0.00 0.00 0.00 0.00 0.02 0.00 0.00 0.00 0.00 0.00 0.00 0.00 0.00 0.00 0.00 0.00 0.00 0.00 0.00 0.00 0.00 0.00 0.00 0.00 0.00 0.00 0.00 0.00 0.00 0.00 0.00 0.00 0.03 0.04 0.02 0.01
0.02 0.01 0.03 0.10 0.22 0.13 0.00 0.00 0.00 0.00 0.00 0.00 0.00 0.00 0.00 0.00 0.00 0.00 0.00 0.01 0.00 0.00 0.00 0.00 0.00 0.00 0.00 0.00 0.00 0.00 0.00 0.00 0.01 0.00 0.00 0.00 0.00 0.00 0.00 0.00 0.00 0.00 0.00 0.01
0.01 0.01 0.02 0.05 0.12 0.06 0.01 0.00 0.00 0.00 0.00 0.00 0.00 0.00 0.00 0.00 0.00 0.00 0.00 0.01 0.01 0.00 0.00 0.00 0.00 0.00 0.00 0.00 0.00 0.00 0.00 0.00 0.00 0.00 0.00 0.00 0.00 0.00 0.00 0.00 0.00 0.00 0.00 0.00
0.01 0.01 0.01 0.02 0.05 0.08 0.02 0.00 0.00 0.01 0.01 0.00 0.00 0.00 0.00 0.00 0.00 0.00 0.00 0.03 0.02 0.00 0.00 0.00 0.03 0.01 0.00 0.00 0.00 0.00 0.00 0.00 0.00 0.00 0.00 0.00 0.00 0.00 0.00 0.00 0.00 0.00 0.00 0.00
0.01 0.02 0.01 0.01 0.02 0.05 0.07 0.00 0.00 0.01 0.02 0.00 0.00 0.00 0.00 0.00 0.00 0.00 0.00 0.01 0.02 0.01 0.00 0.03 0.00 0.00 0.00 0.00 0.00 0.01 0.01 0.00 0.00 0.00 0.00 0.00 0.00 0.00 0.00 0.00 0.00 0.00 0.00 0.00
0.00 0.01 0.02 0.02 0.02 0.03 0.08 0.04 0.00 0.00 0.01 0.00 0.00 0.00 0.00 0.00 0.01 0.03 0.02 0.00 0.00 0.02 0.01 0.00 0.00 0.00 0.00 0.00 0.00 0.02 0.06 0.03 0.00 0.01 0.01 0.00 0.00 0.00 0.01 0.00 0.00 0.00 0.00 0.00
0.00 0.00 0.01 0.02 0.03 0.04 0.06 0.09 0.01 0.01 0.00 0.00 0.00 0.00 0.00 0.00 0.00 0.00 0.00 0.06 0.11 0.10 0.07 0.02 0.00 0.00 0.01 0.01 0.01 0.05 0.20 0.12 0.02 0.00 0.01 0.05 0.05 0.02 0.01 0.01 0.02 0.02 0.01 0.00
0.00 0.00 0.01 0.01 0.03 0.05 0.06 0.07 0.01 0.12 0.09 0.01 0.00 0.00 0.00 0.00 0.00 0.00 0.00 0.00 0.09 0.27 0.15 0.01 0.00 0.01 0.01 0.01 0.02 0.10 0.33 0.21 0.02 0.06 0.06 0.02 0.03 0.06 0.01 0.03 0.03 0.01 0.02 0.02
0.00 0.00 0.01 0.02 0.04 0.06 0.07 0.06 0.02 0.08 0.04 0.00 0.00 0.00 0.00 0.00 0.00 0.00 0.00 0.00 0.04 0.06 0.04 0.00 0.00 0.00 0.00 0.01 0.05 0.13 0.14 0.13 0.23 0.29 0.12 0.03 0.03 0.16 0.17 0.02 0.01 0.02 0.00 0.00
0.00 0.01 0.01 0.02 0.05 0.06 0.01 0.00 0.00 0.02 0.01 0.01 0.01 0.00 0.00 0.00 0.00 0.00 0.00 0.00 0.00 0.01 0.01 0.00 0.00 0.00 0.03 0.06 0.10 0.16 0.02 0.07 0.29 0.26 0.22 0.12 0.12 0.20 0.24 0.13 0.03 0.00 0.00 0.00
0.00 0.01 0.02 0.03 0.07 0.08 0.02 0.08 0.06 0.01 0.00 0.00 0.00 0.00 0.00 0.00 0.00 0.00 0.00 0.00 0.00 0.01 0.00 0.00 0.00 0.01 0.09 0.14 0.12 0.17 0.06 0.02 0.02 0.15 0.22 0.27 0.29 0.13 0.04 0.01 0.00 0.00 0.00 0.00
0.00 0.02 0.03 0.04 0.09 0.08 0.02 0.01 0.00 0.00 0.01 0.05 0.02 0.00 0.00 0.00 0.00 0.00 0.00 0.00 0.03 0.02 0.02 0.00 0.00 0.00 0.04 0.14 0.05 0.03 0.03 0.00 0.01 0.02 0.05 0.04 0.03 0.03 0.00 0.00 0.00 0.00 0.00 0.00
0.01 0.03 0.02 0.06 0.14 0.16 0.02 0.00 0.00 0.00 0.05 0.03 0.01 0.00 0.04 0.01 0.02 0.02 0.01 0.00 0.01 0.00 0.01 0.00 0.00 0.00 0.01 0.03 0.01 0.00 0.00 0.00 0.00 0.00 0.00 0.00 0.00 0.00 0.00 0.00 0.00 0.00 0.00 0.00
0.02 0.04 0.10 0.26 0.31 0.13 0.03 0.00 0.00 0.01 0.01 0.02 0.01 0.00 0.14 0.05 0.02 0.02 0.00 0.00 0.00 0.00 0.01 0.00 0.00 0.01 0.03 0.02 0.00 0.00 0.00 0.00 0.00 0.00 0.00 0.00 0.00 0.00 0.00 0.00 0.00 0.00 0.00 0.00
0.12 0.15 0.22 0.24 0.10 0.01 0.03 0.15 0.18 0.15 0.06 0.01 0.00 0.00 0.17 0.07 0.01 0.01 0.01 0.01 0.00 0.01 0.00 0.01 0.05 0.04 0.02 0.00 0.00 0.00 0.00 0.00 0.00 0.00 0.00 0.00 0.01 0.00 0.00 0.00 0.00 0.00 0.00 0.00
0.23 0.23 0.14 0.07 0.03 0.06 0.12 0.14 0.09 0.08 0.02 0.00 0.00 0.00 0.01 0.07 0.03 0.02 0.01 0.02 0.02 0.00 0.00 0.01 0.02 0.01 0.02 0.00 0.00 0.00 0.00 0.00 0.00 0.00 0.00 0.00 0.00 0.01 0.00 0.00 0.00 0.00 0.00 0.01
0.10 0.08 0.08 0.07 0.12 0.09 0.08 0.10 0.02 0.00 0.00 0.00 0.00 0.00 0.03 0.11 0.11 0.02 0.01 0.01 0.02 0.00 0.05 0.09 0.03 0.02 0.01 0.00 0.00 0.00 0.00 0.00 0.00 0.00 0.00 0.00 0.00 0.00 0.00 0.00 0.00 0.01 0.01 0.01
0.03 0.03 0.08 0.07 0.09 0.02 0.08 0.07 0.01 0.00 0.00 0.00 0.00 0.03 0.04 0.01 0.01 0.03 0.00 0.00 0.01 0.06 0.08 0.04 0.01 0.01 0.00 0.00 0.00 0.00 0.00 0.00 0.00 0.00 0.00 0.00 0.00 0.00 0.00 0.00 0.00 0.00 0.01 0.01
0.02 0.01 0.02 0.03 0.01 0.00 0.01 0.00 0.00 0.00 0.00 0.00 0.00 0.02 0.03 0.00 0.00 0.02 0.02 0.00 0.00 0.02 0.02 0.00 0.01 0.00 0.00 0.00 0.00 0.00 0.00 0.00 0.00 0.00 0.00 0.00 0.00 0.00 0.00 0.00 0.00 0.00 0.01 0.01
0.00 0.00 0.00 0.00 0.00 0.01 0.01 0.01 0.00 0.00 0.01 0.00 0.00 0.00 0.00 0.00 0.00 0.00 0.00 0.00 0.00 0.00 0.00 0.00 0.00 0.00 0.00 0.00 0.00 0.00 0.00 0.00 0.00 0.00 0.00 0.00 0.00 0.00 0.00 0.00 0.00 0.00 0.01 0.01
0.00 0.00 0.01 0.01 0.00 0.02 0.01 0.01 0.01 0.02 0.02 0.00 0.00 0.00 0.00 0.00 0.00 0.00 0.00 0.00 0.00 0.00 0.00 0.00 0.00 0.00 0.00 0.00 0.00 0.00 0.00 0.00 0.00 0.00 0.00 0.00 0.00 0.00 0.01 0.01 0.01 0.01 0.01 0.01
0.00 0.00 0.01 0.01 0.00 0.01 0.02 0.01 0.01 0.02 0.02 0.01 0.00 0.00 0.00 0.00 0.00 0.00 0.00 0.00 0.00 0.00 0.01 0.00 0.00 0.00 0.00 0.00 0.00 0.00 0.00 0.00 0.00 0.00 0.00 0.00 0.00 0.00 0.00 0.00 0.01 0.00 0.00 0.00
MSLP
1019.57 1019.47 1019.30 1019.05 1018.87 1018.79 1018.84 1018.93 1018.23 1015.98 1015.62 1016.01 1015.83 1015.14 1014.03 1012.75 1011.50 1010.96 1010.11 1008.65 1007.88 1007.55 1007.09 1006.65 1006.38 1006.01 1005.78 1005.61 1006.09 1006.54 1006.86 1007.30 1007.03 1006.07 1005.06 1005.13 1005.71 1006.49 1007.61 1008.14 1007.52 1006.62 1005.68 1004.38
1019.17 1019.12 1018.92 1018.80 1018.69 1018.75 1019.15 1018.99 1018.01 1015.95 1015.63 1016.23 1015.96 1015.26 1014.17 1013.17 1012.08 1011.37 1010.56 1009.78 1009.00 1008.65 1008.42 1008.01 1007.39 1006.85 1006.62 1006.29 1006.44 1006.77 1007.27 1007.91 1007.85 1006.28 1005.75 1005.93 1006.69 1006.83 1007.24 1007.64 1007.48 1006.65 1006.22 1004.92
1018.78 1018.68 1018.58 1018.42 1018.43 1018.56 1019.18 1019.37 1018.19 1016.80 1016.30 1016.37 1016.32 1015.04 1013.99 1013.02 1011.86 1011.10 1010.54 1010.03 1009.54 1009.14 1009.02 1008.85 1008.39 1008.03 1007.15 1006.77 1007.06 1007.18 1007.48 1008.13 1008.21 1008.13 1007.53 1007.75 1007.47 1007.37 1007.25 1007.38 1006.91 1006.23 1005.70 1004.95
1018.22 1018.17 1018.15 1018.03 1018.11 1018.32 1019.07 1019.29 1018.65 1017.49 1016.94 1016.38 1016.11 1015.29 1014.12 1013.21 1012.29 1011.40 1010.59 1010.16 1010.05 1010.12 1009.95 1009.67 1009.39 1008.63 1008.34 1007.93 1007.89 1007.97 1008.39 1008.69 1008.59 1008.24 1007.77 1007.32 1007.00 1006.69 1006.74 1006.84 1006.41 1006.00 1005.46 1005.03
1017.65 1017.56 1017.54 1017.57 1017.65 1018.02 1018.73 1018.98 1018.77 1017.87 1017.15 1016.32 1015.81 1014.89 1014.03 1013.30 1012.65 1012.13 1011.14 1011.11 1010.90 1011.05 1011.15 1011.48 1011.14 1010.23 1009.27 1008.91 1008.70 1008.83 1009.10 1009.29 1008.99 1008.50 1007.71 1007.02 1006.36 1005.80 1005.69 1006.22 1005.96 1005.50 1005.13 1005.06
1016.96 1016.92 1016.81 1016.83 1016.97 1017.51 1017.99 1018.18 1018.30 1018.26 1017.69 1016.82 1016.19 1015.20 1014.21 1013.56 1012.95 1011.68 1011.48 1011.05 1011.44 1011.49 1011.56 1011.59 1011.23 1010.77 1010.20 1009.82 1009.53 1009.52 1009.74 1010.04 1010.11 1009.06 1007.97 1006.99 1005.89 1004.33 1004.31 1004.99 1005.07 1005.18 1004.44 1003.78
1016.28 1016.20 1016.11 1016.07 1016.22 1016.67 1017.11 1017.61 1018.03 1017.99 1017.52 1017.04 1016.33 1015.32 1014.62 1013.68 1013.14 1013.03 1012.29 1011.97 1011.84 1011.68 1011.49 1011.31 1010.89 1010.51 1010.17 1009.87 1009.81 1009.72 1010.01 1010.51 1010.91 1010.22 1008.64 1007.06 1005.02 1003.73 1003.30 1003.54 1003.63 1003.55 1003.29 1003.44
1015.55 1015.48 1015.42 1015.34 1015.26 1015.69 1016.42 1016.95 1017.51 1017.54 1017.41 1016.83 1016.16 1015.56 1014.97 1014.43 1013.61 1012.95 1012.50 1011.97 1011.76 1011.63 1011.80 1011.85 1011.42 1011.03 1010.42 1009.63 1009.23 1009.44 1009.79 1010.30 1010.73 1010.54 1009.44 1007.47 1005.17 1003.82 1003.20 1002.85 1003.63 1003.12 1002.65 1003.76
1014.87 1014.79 1014.72 1014.69 1014.64 1014.96 1015.70 1016.09 1016.72 1017.25 1017.32 1016.43 1015.73 1015.47 1015.06 1014.72 1014.34 1013.53 1012.70 1012.43 1012.18 1012.18 1012.61 1012.90 1012.62 1011.93 1010.86 1010.00 1009.19 1008.84 1009.53 1010.12 1010.80 1010.73 1009.73 1008.00 1005.73 1004.24 1003.42 1003.02 1004.00 1003.98 1003.14 1003.95
1014.10 1014.06 1014.03 1014.05 1014.07 1014.19 1014.76 1015.27 1016.07 1017.10 1017.01 1015.84 1015.58 1015.39 1015.14 1015.08 1014.99 1014.71 1014.18 1013.93 1013.28 1012.94 1013.38 1013.50 1013.10 1012.18 1010.99 1010.42 1009.76 1009.56 1010.23 1010.63 1010.66 1010.62 1009.92 1008.16 1006.05 1005.24 1004.18 1004.84 1006.27 1005.60 1005.12 1005.06
1013.29 1013.28 1013.29 1013.29 1013.41 1013.64 1014.15 1014.43 1015.08 1015.90 1016.13 1015.38 1015.10 1015.15 1015.03 1015.00 1015.15 1015.23 1015.01 1014.76 1014.52 1014.18 1014.12 1013.81 1013.00 1012.38 1011.42 1010.76 1009.93 1009.53 1009.95 1010.38 1010.36 1010.26 1009.95 1008.89 1007.02 1005.89 1006.09 1006.43 1006.55 1006.69 1006.74 1007.16
1012.40 1012.42 1012.46 1012.46 1012.59 1012.79 1013.33 1013.76 1014.21 1014.96 1015.75 1015.20 1014.57 1014.40 1014.31 1014.46 1014.48 1014.99 1015.07 1015.41 1015.33 1014.60 1014.35 1013.86 1013.22 1012.66 1012.04 1011.33 1010.46 1009.66 1009.99 1009.66 1009.09 1008.93 1008.77 1008.92 1008.05 1007.70 1007.68 1007.70 1007.74 1008.20 1008.39 1008.83
1011.42 1011.44 1011.40 1011.48 1011.63 1011.84 1012.44 1013.15 1013.96 1014.66 1015.18 1015.23 1014.62 1013.54 1013.53 1013.71 1013.76 1013.95 1014.85 1014.86 1014.97 1015.09 1015.19 1014.21 1013.56 1013.04 1012.44 1011.83 1010.87 1010.34 1009.71 1009.15 1008.79 1008.72 1009.46 1009.31 1009.29 1009.29 1009.27 1009.33 1009.15 1009.46 1009.79 1010.11
1010.33 1010.39 1010.48 1010.48 1010.63 1011.02 1011.70 1012.56 1013.33 1014.34 1015.01 1015.00 1013.49 1012.56 1012.70 1012.07 1012.59 1013.18 1013.48 1013.79 1014.34 1014.53 1014.49 1014.32 1013.82 1013.27 1012.23 1011.97 1011.47 1011.30 1010.36 1009.65 1009.96 1009.87 1010.11 1010.31 1010.67 1010.93 1011.05 1011.46 1010.80 1011.32 1012.43 1012.08
1009.26 1009.50 1009.68 1009.74 1010.03 1010.60 1011.60 1012.43 1012.89 1013.46 1013.99 1014.13 1013.46 1012.50 1011.30 1011.20 1011.68 1012.26 1012.78 1013.26 1013.67 1014.22 1014.15 1014.18 1013.80 1012.91 1012.34 1011.98 1011.77 1012.50 1012.35 1011.86 1011.11 1011.74 1011.37 1011.26 1012.47 1012.46 1012.27 1012.93 1013.14 1013.45 1013.92 1014.82
1008.51 1008.79 1008.99 1009.23 1009.89 1010.79 1011.88 1012.78 1013.06 1013.05 1013.60 1014.09 1013.73 1012.09 1010.91 1010.66 1010.97 1011.74 1012.49 1012.74 1013.33 1013.57 1013.71 1013.64 1013.28 1012.49 1012.57 1012.60 1012.59 1014.18 1013.81 1013.49 1013.14 1012.83 1012.77 1013.01 1013.56 1013.88 1013.81 1014.10 1014.66 1014.92 1015.60 1016.14
1007.91 1008.16 1008.52 1008.99 1009.82 1010.59 1011.24 1011.40 1011.54 1012.65 1013.65 1014.23 1013.74 1012.38 1010.84 1010.18 1010.97 1011.90 1012.40 1012.54 1013.06 1013.42 1013.79 1013.66 1013.44 1012.85 1012.60 1012.95 1013.96 1015.24 1015.20 1014.87 1014.25 1013.64 1013.46 1014.28 1014.75 1015.29 1015.07 1015.26 1016.04 1016.47 1017.44 1017.50
1007.29 1007.66 1008.17 1008.55 1009.59 1010.58 1011.13 1010.90 1011.20 1012.36 1013.56 1013.81 1013.32 1012.26 1011.28 1010.54 1011.17 1012.05 1012.21 1012.62 1012.99 1013.37 1013.39 1013.49 1013.30 1013.00 1013.35 1014.85 1015.93 1016.29 1016.38 1015.89 1015.79 1015.51 1015.26 1015.57 1016.00 1016.24 1016.63 1016.99 1017.43 1017.94 1018.41 1018.63
1006.52 1007.24 1008.04 1008.81 1009.78 1010.30 1010.62 1011.04 1011.74 1012.15 1012.87 1012.79 1012.50 1012.09 1011.38 1010.75 1011.38 1011.86 1012.39 1012.61 1013.26 1013.32 1013.19 1013.16 1013.52 1014.29 1015.82 1016.89 1017.39 1017.61 1017.57 1017.47 1017.21 1016.83 1016.75 1016.83 1017.07 1017.50 1017.88 1018.08 1018.31 1018.68 1019.16 1019.37
1005.76 1007.13 1008.36 1009.19 1009.27 1009.82 1010.68 1011.93 1012.42 1012.50 1012.01 1011.88 1011.68 1011.38 1011.20 1011.26 1011.22 1011.87 1012.38 1012.63 1012.69 1012.73 1012.50 1012.65 1013.95 1016.13 1017.57 1018.09 1018.44 1018.58 1018.52 1018.35 1018.06 1017.76 1017.98 1018.03 1018.21 1018.58 1019.05 1019.44 1019.82 1020.18 1020.62 1021.01
1005.59 1006.86 1007.71 1008.34 1008.92 1009.94 1011.06 1011.63 1011.93 1011.83 1011.73 1011.37 1010.86 1010.55 1010.70 1010.73 1011.01 1011.54 1011.97 1012.04 1012.20 1012.39 1012.24 1013.04 1014.99 1016.92 1018.37 1019.05 1019.36 1019.44 1019.37 1019.33 1019.33 1019.33 1019.46 1019.43 1019.40 1019.82 1020.19 1020.61 1020.99 1021.34 1021.69 1022.15
1004.97 1005.75 1007.14 1008.39 1009.44 1010.00 1010.69 1010.93 1011.09 1011.12 1010.61 1010.40 1010.34 1010.20 1010.19 1010.64 1010.69 1011.15 1011.75 1012.02 1012.29 1012.51 1012.68 1014.41 1016.78 1018.51 1019.37 1019.85 1020.20 1020.44 1020.46 1020.52 1020.57 1020.55 1020.55 1020.68 1020.86 1021.08 1021.34 1021.70 1022.09 1022.47 1022.82 1023.20
1005.46 1006.49 1007.85 1008.55 1009.48 1009.97 1010.35 1010.22 1010.50 1010.20 1009.70 1009.75 1009.87 1010.51 1010.63 1010.81 1010.98 1011.43 1011.93 1012.41 1012.76 1013.12 1014.77 1017.01 1018.61 1019.51 1020.27 1020.73 1021.14 1021.43 1021.55 1021.62 1021.74 1021.93 1021.98 1022.06 1022.23 1022.41 1022.67 1023.02 1023.29 1023.49 1023.77 1024.14
1006.13 1007.46 1009.07 1009.66 1010.45 1010.80 1010.57 1010.16 1009.84 1009.90 1009.66 1009.70 1010.08 1010.61 1011.07 1011.49 1011.89 1012.33 1012.59 1013.35 1013.71 1014.89 1017.11 1018.96 1020.11 1020.75 1021.20 1021.55 1021.93 1022.30 1022.74 1022.97 1023.15 1023.30 1023.27 1023.32 1023.41 1023.63 1023.88 1024.06 1024.15 1024.27 1024.59 1024.96
1007.50 1008.45 1010.17 1011.10 1011.33 1011.32 1010.71 1010.39 1010.35 1010.34 1010.08 1010.05 1010.41 1011.13 1011.63 1012.54 1013.23 1013.68 1014.28 1015.12 1016.40 1017.91 1019.29 1020.52 1021.25 1021.74 1022.01 1022.39 1022.74 1023.09 1023.50 1023.79 1023.96 1024.08 1024.24 1024.37 1024.44 1024.56 1024.71 1024.82 1024.88 1025.04 1025.26 1025.50
1008.97 1010.26 1011.15 1011.62 1011.92 1011.96 1011.50 1011.25 1011.10 1010.86 1010.58 1010.53 1010.90 1012.13 1013.25 1014.09 1014.75 1015.80 1017.09 1017.79 1018.78 1020.12 1020.76 1021.58 1022.30 1022.66 1022.83 1023.06 1023.34 1023.58 1023.82 1024.07 1024.31 1024.49 1024.65 1024.79 1024.92 1025.05 1025.26 1025.43 1025.63 1025.85 1026.03 1026.26
1010.67 1011.98 1012.22 1012.50 1012.90 1012.99 1012.73 1012.40 1011.98 1011.39 1011.37 1012.05 1012.48 1013.48 1014.74 1015.20 1016.62 1018.26 1019.15 1019.95 1020.44 1020.91 1021.64 1022.29 1022.74 1023.19 1023.43 1023.58 1023.73 1023.95 1024.17 1024.41 1024.59 1024.73 1024.85 1025.00 1025.13 1025.27 1025.47 1025.73 1026.06 1026.26 1026.55 1026.71
Thickness
5345 5337 5330 5323 5318 5314 5309 5306 5311 5340 5353 5352 5367 5375 5412 5432 5445 5456 5467 5489 5502 5504 5509 5513 5520 5527 5531 5542 5542 5535 5541 5534 5533 5546 5567 5568 5562 5552 5539 5536 5549 5552 5560 5577
5340 5332 5326 5319 5314 5309 5304 5307 5314 5338 5347 5350 5362 5385 5405 5419 5431 5441 5456 5467 5486 5493 5495 5498 5510 5516 5523 5529 5530 5529 5532 5520 5519 5542 5555 5551 5541 5547 5544 5540 5540 5544 5547 5572
5337 5331 5324 5319 5313 5309 5304 5304 5317 5328 5344 5347 5360 5380 5398 5413 5436 5444 5456 5463 5474 5485 5486 5495 5497 5501 5517 5524 5522 5524 5526 5519 5520 5515 5528 5523 5526 5531 5534 5534 5539 5549 5549 5565
5337 5330 5324 5320 5316 5312 5307 5307 5312 5329 5341 5356 5360 5372 5392 5400 5415 5437 5448 5459 5466 5467 5470 5477 5484 5495 5497 5507 5509 5514 5512 5509 5518 5523 5529 5533 5534 5537 5532 5530 5537 5542 5553 5557
5337 5332 5327 5323 5320 5316 5313 5312 5314 5328 5339 5359 5364 5378 5391 5403 5414 5422 5435 5436 5447 5449 5451 5447 5451 5473 5486 5493 5498 5500 5500 5501 5509 5515 5528 5531 5533 5542 5540 5528 5531 5535 5549 5543
5337 5333 5330 5328 5325 5322 5320 5321 5322 5324 5335 5349 5358 5368 5387 5394 5403 5425 5431 5440 5433 5433 5443 5445 5453 5458 5468 5479 5486 5485 5489 5484 5482 5500 5518 5521 5523 5544 5546 5536 5538 5533 5541 5558
5338 5335 5333 5332 5330 5328 5326 5325 5322 5325 5328 5341 5357 5369 5380 5393 5402 5398 5416 5424 5424 5435 5440 5445 5454 5462 5467 5470 5473 5478 5478 5475 5469 5473 5499 5502 5535 5550 5554 5550 5551 5551 5558 5559
5339 5337 5335 5335 5336 5334 5330 5327 5328 5332 5314 5342 5353 5363 5373 5382 5393 5407 5413 5422 5428 5429 5432 5434 5440 5440 5456 5466 5474 5471 5471 5467 5453 5462 5480 5506 5529 5540 5544 5552 5541 5551 5563 5555
5339 5338 5337 5337 5337 5337 5333 5332 5329 5331 5333 5337 5356 5359 5367 5367 5371 5384 5406 5409 5413 5419 5415 5410 5417 5430 5449 5462 5474 5477 5467 5461 5452 5440 5465 5464 5517 5533 5547 5549 5527 5540 5553 5551
5340 5338 5338 5338 5338 5339 5337 5336 5332 5326 5332 5341 5351 5351 5356 5364 5365 5365 5380 5388 5395 5407 5399 5411 5409 5424 5454 5446 5461 5468 5441 5434 5448 5439 5440 5468 5511 5518 5534 5521 5511 5523 5531 5534
5341 5340 5339 5340 5340 5339 5338 5339 5337 5334 5330 5345 5352 5355 5356 5357 5357 5363 5371 5373 5380 5395 5390 5400 5415 5409 5436 5445 5458 5461 5457 5449 5441 5438 5440 5455 5493 5509 5510 5504 5505 5510 5514 5513
5344 5344 5343 5344 5344 5344 5341 5342 5341 5339 5335 5343 5352 5356 5356 5355 5357 5355 5363 5366 5375 5392 5403 5401 5408 5404 5405 5431 5438 5459 5451 5456 5460 5463 5462 5463 5477 5482 5487 5489 5491 5491 5492 5495
5348 5349 5350 5350 5350 5350 5348 5345 5341 5339 5339 5340 5346 5356 5356 5357 5358 5360 5352 5368 5374 5375 5374 5392 5403 5416 5421 5418 5439 5447 5444 5449 5467 5474 5459 5457 5459 5464 5468 5470 5477 5476 5476 5476
5352 5354 5355 5357 5357 5355 5351 5348 5344 5339 5337 5331 5351 5362 5361 5368 5366 5367 5371 5376 5374 5376 5381 5386 5395 5403 5419 5419 5431 5433 5444 5454 5451 5453 5449 5449 5445 5443 5445 5446 5455 5449 5442 5450
5356 5357 5359 5361 5360 5357 5351 5347 5345 5344 5344 5339 5348 5361 5373 5376 5374 5376 5378 5379 5380 5377 5384 5385 5392 5400 5415 5423 5426 5417 5416 5424 5435 5433 5426 5438 5425 5427 5431 5425 5424 5425 5422 5415
5358 5359 5360 5361 5358 5354 5349 5341 5341 5344 5342 5340 5342 5363 5375 5380 5379 5376 5376 5381 5381 5384 5385 5384 5396 5407 5410 5415 5427 5394 5400 5400 5404 5415 5408 5408 5405 5405 5415 5411 5408 5407 5401 5400
5357 5359 5359 5359 5355 5354 5351 5349 5351 5343 5338 5337 5346 5354 5374 5382 5377 5372 5371 5378 5380 5379 5383 5386 5392 5398 5409 5408 5405 5381 5382 5389 5398 5407 5409 5399 5392 5387 5398 5395 5389 5387 5379 5383
5355 5356 5357 5358 5353 5349 5348 5353 5352 5344 5339 5341 5349 5351 5371 5381 5368 5373 5374 5375 5381 5379 5384 5387 5395 5401 5401 5386 5377 5374 5373 5382 5379 5385 5390 5385 5381 5378 5376 5376 5373 5370 5368 5368
5352 5352 5350 5349 5347 5349 5351 5349 5345 5344 5345 5350 5357 5362 5364 5378 5369 5372 5372 5376 5374 5378 5384 5390 5389 5380 5361 5360 5357 5357 5360 5362 5365 5371 5371 5372 5367 5361 5358 5359 5361 5358 5355 5354
5348 5345 5340 5340 5347 5350 5347 5339 5335 5339 5349 5359 5365 5364 5372 5375 5371 5370 5375 5374 5382 5388 5395 5396 5377 5357 5349 5350 5350 5349 5350 5352 5355 5361 5357 5357 5354 5349 5344 5339 5335 5333 5329 5327
5342 5338 5343 5347 5348 5345 5339 5339 5341 5345 5355 5360 5367 5375 5378 5380 5380 5380 5376 5386 5387 5394 5397 5396 5377 5360 5343 5340 5337 5337 5338 5338 5337 5336 5334 5335 5338 5334 5330 5327 5323 5319 5315 5310
5348 5352 5349 5345 5341 5345 5347 5348 5349 5352 5361 5366 5367 5375 5383 5380 5384 5382 5378 5380 5388 5393 5394 5372 5341 5338 5331 5329 5325 5323 5323 5322 5320 5321 5321 5319 5317 5314 5312 5309 5304 5300 5295 5290
5348 5347 5345 5349 5345 5353 5355 5360 5361 5366 5376 5378 5380 5377 5377 5378 5382 5383 5384 5389 5389 5383 5359 5337 5329 5328 5321 5316 5313 5310 5309 5308 5306 5303 5302 5300 5296 5293 5289 5284 5281 5278 5274 5270
5348 5344 5322 5343 5322 5319 5327 5348 5363 5363 5373 5378 5376 5377 5377 5374 5376 5369 5386 5365 5372 5370 5336 5331 5314 5308 5307 5307 5303 5297 5286 5285 5281 5277 5276 5274 5273 5270 5267 5264 5262 5260 5256 5250
5340 5341 5316 5307 5316 5324 5345 5353 5356 5358 5365 5373 5377 5369 5370 5363 5361 5360 5361 5365 5346 5334 5313 5299 5301 5298 5296 5291 5290 5284 5279 5271 5269 5262 5260 5256 5254 5253 5249 5246 5244 5241 5237 5234
5333 5326 5329 5326 5323 5329 5339 5345 5352 5355 5363 5370 5369 5361 5348 5346 5347 5343 5324 5347 5320 5301 5291 5297 5286 5284 5280 5278 5277 5272 5267 5263 5259 5255 5251 5246 5241 5237 5232 5228 5224 5219 5215 5212
5323 5314 5311 5314 5314 5317 5327 5333 5342 5352 5363 5351 5357 5354 5351 5355 5332 5310 5303 5286 5285 5296 5294 5286 5281 5281 5273 5270 5268 5262 5258 5252 5245 5241 5237 5232 5229 5225 5220 5214 5208 5204 5199 5194